Home > Weather > Yonkers > Past weeks

Flag for USA Past Weather in Yonkers, New York, USA — Yesterday and Last 2 Weeks

Now
71 °F

Fog.


Feels Like: 70 °F
Forecast: 69 / 82 °F
Wind: 5 mph from Northwest

Location: Teterboro Airport

Current Time: Jun 29, 2016 at 8:46:12 AM

Latest Report: Jun 29, 2016 at 7:51 AM


Visibility: 8 mi

Pressure: 29.88 "Hg

Humidity: 84%

Dew Point: 66 °F

Location of YonkersLocation

Past Weather in Yonkers — Graph

°F

Yonkers Temperature Yesterday

Maximum temperature yesterday: 79 °F (at 5:51 PM)
Minimum temperature yesterday: 68 °F (at 10:51 PM)
Average temperature yesterday: 73 °F

High & Low Weather Summary for the Past Weeks

 TemperatureHumidityPressure
High89 °F (Jun 21, 4:51 PM)94% (Jun 29, 5:01 AM)30.30 "Hg (Jun 29, 5:01 AM)
Low56 °F (Jun 18, 4:51 AM)18% (Jun 15, 3:51 PM)29.72 "Hg (Jun 16, 6:51 PM)
Average74 °F54%29.98 "Hg
* Reported Jun 14 6:51 AM — Jun 29 6:51 AM, Yonkers, Weather by CustomWeather, © 2016

Note: Actual official high and low records may vary slightly from our data, if they occured in-between our weather recording intervals... More about our weather records

Advertising

Yonkers Weather History for the Previous 24 Hours

Scroll right to see more
 ConditionsComfort  
Time TempWeatherWind HumidityBarometerVisibility
6:51 AM
Wed, Jun 29
69 °FFog.3 mph90%29.87 "Hg5 mi
5:59 AM68 °FFog.3 mph94%29.86 "Hg5 mi
5:01 AM68 °FFog.No wind94%29.85 "Hg4 mi
4:51 AM68 °FFog.No wind90%29.85 "Hg4 mi
3:51 AM69 °FFog.No wind90%29.85 "Hg5 mi
2:51 AM68 °FPassing clouds.No wind93%29.85 "Hg10 mi
1:51 AM68 °FPassing clouds.No wind93%29.84 "Hg10 mi
12:51 AM68 °FLight rain. Partly cloudy.3 mph90%29.86 "Hg10 mi
11:51 PM
Tue, Jun 28
69 °FRain. Partly cloudy.No wind90%29.86 "Hg10 mi
10:51 PM68 °FRain. Fog.6 mph90%29.87 "Hg9 mi
9:51 PM73 °FThunderstorms. Fog.7 mph88%29.87 "Hg3 mi
8:51 PM74 °FFog.15 mph82%29.86 "Hg3 mi
7:51 PM74 °FMostly cloudy.9 mph82%29.86 "Hg5 mi
6:58 PM75 °FMostly cloudy.7 mph78%29.87 "Hg10 mi
6:51 PM76 °FOvercast.9 mph77%29.87 "Hg10 mi
5:51 PM79 °FOvercast.10 mph69%29.87 "Hg10 mi
5:04 PM77 °FScattered clouds.10 mph74%29.87 "Hg10 mi
3:51 PM78 °FOvercast.8 mph71%29.87 "Hg8 mi
3:00 PM75 °FBroken clouds.6 mph78%29.89 "Hg8 mi
1:51 PM73 °FFog.3 mph84%29.92 "Hg6 mi
12:51 PM73 °FFog.6 mph84%29.94 "Hg6 mi
11:51 AM73 °FOvercast.3 mph81%29.95 "Hg6 mi
10:51 AM73 °FMostly cloudy.7 mph81%29.95 "Hg7 mi
9:51 AM73 °FOvercast.8 mph79%29.95 "Hg10 mi
8:51 AM71 °FLight rain. Overcast.5 mph81%29.96 "Hg10 mi
Weather by CustomWeather, © 2016

See weather overviewHow to use our weather pages